Regional Weather Roundup
Issued by NWS Albany, NY

Home | Current Version | Previous Version | Graphics & Text | Print | Product List | Glossary On
Versions: 1 2 3 4 5 6 7 8 9 10 11 12 13 14 15 16 17 18 19 20 21 22 23 24 25 26 27 28 29 30 31 32 33 34 35 36 37 38 39 40 41 42 43 44 45 46 47 48 49 50
000
ASUS41 KALY 010410
RWRALY

NEW YORK STATE HOURLY WEATHER ROUNDUP
NATIONAL WEATHER SERVICE ALBANY NY
1200 AM EDT MON SEP 01 2014

NOTE: "FAIR" INDICATES FEW OR NO CLOUDS BELOW 12,000 FEET WITH NO
SIGNIFICANT WEATHER AND/OR NO OBSTRUCTIONS TO VISIBILITY.

NYZ032-033-038>043-046>054-057>066-NYZ062>081-010500-
EAST


CITY           SKY/WX    TMP DP  RH WIND       PRES   REMARKS
ALBANY         MOCLDY    73  70  90 CALM      29.96S
GLENS FALLS    PTCLDY    70  69  97 SW5       29.95S FOG
POUGHKEEPSIE   MOCLDY    72  69  90 CALM      29.98S
NEWBURGH       MOCLDY    70  70 100 VRB3      30.00F
MONTGOMERY     FOG       69  68  96 S3        30.00S VSB 3/4
WHITE PLAINS   MOCLDY    73  72  96 CALM      30.00F FOG
ISLIP          LGT RAIN  75  72  90 SW6       29.99S
NEW YORK CITY  CLOUDY    78  71  79 SW8       29.99F
CENTRAL PARK   CLOUDY    76  72  87 W6        30.03S
$$

NYZ005>009-017-018-044>046-055-056-010500-
CENTRAL


CITY           SKY/WX    TMP DP  RH WIND       PRES   REMARKS
FULTON         PTCLDY    70  66  87 SW6       29.96S
SYRACUSE       MOCLDY    70  66  87 CALM      29.96S
ROME           MOCLDY    67  66  97 CALM      29.98S FOG
ELMIRA         CLOUDY    70  69  97 CALM      30.00F
BINGHAMTON     MOCLDY    68  67  96 SW5       30.03F FOG
MONTICELLO     CLOUDY    68  66  94 W5        30.05F
$$

NYZ026>034-041>043-010500-
NORTH


CITY           SKY/WX    TMP DP  RH WIND       PRES   REMARKS
WATERTOWN      CLOUDY    72  66  81 SW6       29.94S
FORT DRUM      NOT AVBL
MASSENA        CLOUDY    67  67 100 CALM      29.91S
SARANAC LAKE   CLOUDY    67  66  97 CALM      29.96F FOG
PLATTSBURGH    MOCLDY    73  66  78 CALM      29.90S
$$

NYZ001>004-010>016-019>021-010500-
WEST


CITY           SKY/WX    TMP DP  RH WIND       PRES   REMARKS
NIAGARA FALLS  CLEAR     70  67  90 SW7       29.96R
BUFFALO        PTCLDY    70  67  90 SW7       29.97S
DUNKIRK        CLEAR     70  67  90 SW6       29.98S
JAMESTOWN      CLOUDY    66  66 100 S3        30.04S VSB 1/4
WELLSVILLE     CLOUDY    68  66  93 SW5       30.07S
ROCHESTER      PTCLDY    69  67  93 SW6       29.96S
PENN YAN       PTCLDY    70  67  90 S7        30.00S
$$

             KEY
       WCI = WIND CHILL INDEX
       VSB = VISIBILITY
       HX  = HEAT INDEX
$$


USA.gov is the U.S. government's official web portal to all federal, state and local government web resources and services.